Zurück zum Katalog

COSMOS 397 DEB

AktivLEO
NORAD 5042·DEBRIS·🇷🇺 Russia

Gestartet Feb 25, 1971 von Baikonur Cosmodrome

Loading…

Nächste Überflüge (nächste 24 Stunden)

TLE

AktuellSource: Space-Track

Epoche: Sep 14, 2026, 03:47 UTC

1 05042U 71015P   26257.15779621  .00004025  00000-0  92346-3 0  9993
2 05042  65.6064 305.9106 0564956 263.2138  90.4368 13.88846099664477

Verfolge COSMOS 397 DEB in Echtzeit mit AllMySat

Download on the App Store